Location: New Plymouth
(39.0670°S, 174.0830°E)
Time: 22:04:39
(UTC+12:00)

Daily predictions for brighter satellites

Satellite Brightness Start Highest point End
(mag) Time Altitude Azimuth Time Altitude Azimuth Time Altitude Azimuth
COSMOS 2428 2.8 17:39:03 10° NNW 17:44:45 80° ENE 17:50:31 10° SSE
Cosmos 2360 Rocket 4.0 17:45:57 10° WNW 17:50:48 29° WSW 17:55:44 10° S
Cosmos 2219 Rocket 2.5 17:45:16 10° NNW 17:50:53 75° WSW 17:56:33 10° SSE
Lacrosse 5 3.7 17:49:00 10° SSW 17:51:56 15° SSE 17:54:50 10° SE
Cosmos 1953 Rocket 3.7 17:48:14 10° N 17:52:42 83° W 17:57:16 10° S
Nadezhda 4 Rocket 4.0 17:47:04 10° N 17:53:12 89° E 17:59:29 10° S
USA 276 2.6 17:50:48 10° SW 17:53:54 42° SSE 17:56:59 10° ENE
Cosmos 1092 Rocket 4.2 17:48:08 10° NNE 17:54:06 53° E 18:00:14 10° SSE
Cosmos 2058 3.1 17:55:22 10° N 17:59:21 51° E 18:03:26 10° SSE
Meteor 2-8 Rocket 4.5 17:55:25 10° S 18:01:39 66° E 18:07:45 10° NNE
SMAP 3.9 17:58:31 10° SE 18:02:38 29° E 18:06:42 10° NNE
Atlas Centaur 2 3.4 17:57:54 10° WNW 18:02:46 36° N 18:08:47 10° ENE
Cosmos 2026 Rocket 4.3 17:57:50 10° NNE 18:03:58 51° E 18:10:09 10° SSE
COSMO-SKYMED 1 3.6 17:59:49 10° N 18:04:05 52° W 18:08:25 10° SSW
Cosmos 1486 Rocket 4.3 17:58:54 10° SSW 18:04:13 76° WNW 18:09:31 10° N
CSL-04 DEB 4.4 18:01:18 10° NNE 18:05:10 58° ESE 18:09:07 10° S
CENTAUR R/B 4.4 17:59:18 10° WNW 18:06:02 29° SW 18:11:59 10° SSE
CZ-2C R/B 2.8 18:00:33 10° NNE 18:06:04 57° ESE 18:11:36 10° S
H-2A R/B 3.6 18:02:11 10° N 18:06:06 39° W 18:10:03 10° SSW
IRIDIUM 103 4.4 18:03:04 10° S 18:08:20 61° E 18:13:31 10° NNE
Cosmos 1825 2.1 18:05:36 10° N 18:09:23 82° E 18:13:14 10° S
USA 234 3.4 18:03:48 10° SE 18:10:24 78° SW 18:16:59 10° NW
Cosmos 1408 3.8 18:09:18 10° NNW 18:12:54 46° W 18:16:33 10° S
Cosmos 1980 3.9 18:09:29 10° N 18:15:00 55° ENE 18:20:34 10° SSE
Cosmos 405 Rocket 2.7 18:11:25 10° N 18:15:05 58° E 18:18:52 10° SSE
Cosmos 1842 Rocket 3.7 18:10:44 10° S 18:15:08 53° E 18:19:31 10° NNE
NOAA 6 4.1 18:14:40 10° SSE 18:19:48 57° E 18:24:50 10° N
Envisat 3.6 18:14:49 10° S 18:19:54 60° WSW 18:24:55 10° NNW
Radarsat Rocket 4.4 18:16:41 10° SSE 18:22:23 40° E 18:27:50 10° N
Cosmos 1356 3.4 18:21:19 10° N 18:24:45 88° WSW 18:28:14 10° S
IRIDIUM 106 4.4 18:21:21 10° S 18:26:41 89° W 18:31:56 10° N
SL-16 R/B 3.4 18:22:57 10° NNE 18:27:02 21° E 18:28:38 19° ESE
Cosmos 1437 Rocket 3.2 18:24:40 10° S 18:28:14 36° ESE 18:31:47 10° NE
CZ-4B R/B 2.7 18:27:00 10° N 18:29:52 39° W 18:32:50 10° SSW
Cosmos 2221 2.4 18:26:21 10° S 18:30:43 82° E 18:35:00 10° N
CZ-4B DEB 4.2 18:25:25 10° SSE 18:30:56 65° ENE 18:36:22 10° N
Cosmos 1689 Rocket 2.1 18:32:19 10° NNE 18:35:05 47° ESE 18:37:55 10° S
Cosmos 1606 3.0 18:31:37 10° S 18:35:19 43° E 18:38:56 10° NNE
SL-8 R/B 3.9 18:30:35 10° WNW 18:35:26 69° SSW 18:38:38 21° SE
USA 102 4.0 18:30:37 10° NE 18:37:17 39° E 18:38:01 36° ESE
ATLAS 3B R/B 3.0 18:30:01 10° NW 18:37:33 79° WSW 18:45:00 10° SSE
Meteor 2-15 Rocket 4.4 18:36:34 10° S 18:42:46 80° E 18:48:51 10° N
PSLV R/B 4.3 18:39:07 10° N 18:43:16 67° WNW 18:47:26 10° SSW
Cosmos 2333 Rocket 4.2 18:38:56 10° WNW 18:43:33 25° SW 18:48:12 10° S
Cosmos 1076 Rocket 3.5 18:45:03 10° N 18:49:20 85° W 18:53:43 10° S
Cosmos 1461 3.9 18:46:37 10° S 18:50:14 29° SE 18:50:14 29° SE
Cosmos 1553 Rocket 3.9 18:46:52 10° S 18:52:59 61° E 18:59:00 10° NNE
Cosmos 1777 Rocket 3.9 18:48:43 10° SSW 18:54:03 68° ESE 18:59:15 10° NNE
H-2A R/B 3.9 19:00:07 14° NE 19:00:07 14° NE 19:00:57 10° NNE
Cosmos 2237 Rocket 2.4 18:51:39 10° NNW 18:57:18 71° WSW 19:03:02 10° SSE
Cosmos 1809 Rocket 4.4 18:55:31 10° N 19:01:41 73° E 19:07:55 10° SSE
Cosmos 2151 2.8 18:59:00 10° N 19:03:12 73° E 19:05:43 24° SSE
CZ-2C R/B 2.7 18:59:03 14° SSE 19:03:13 65° E 19:07:57 10° N
CORIOLIS 4.2 18:58:52 10° SSE 19:04:25 85° WSW 19:09:53 10° NNW
ERS-2 2.0 19:01:56 10° NNE 19:05:36 90° W 19:09:20 10° SSW
CZ-2D R/B 3.9 19:08:10 41° NNE 19:08:10 41° NNE 19:11:01 10° N
Cosmos 1417 Rocket 4.4 19:01:17 10° S 19:07:43 69° E 19:14:00 10° NNE
SJ 16-02 2.6 19:04:10 10° S 19:06:30 26° SSE 19:06:30 26° SSE
Okean O Rocket 1.5 19:06:03 27° SSE 19:08:29 72° ENE 19:12:57 10° N
BREEZE-M DEB 4.3 19:07:42 10° WSW 19:09:24 16° SSW 19:09:24 16° SSW
Cosmos 1633 3.0 19:09:01 10° NNW 19:12:33 61° W 19:14:14 28° S
ATLAS CENTAUR R/B 3.9 19:10:34 10° S 19:10:37 10° S 19:10:37 10° S
Cosmos 1943 Rocket 3.8 19:13:36 10° S 19:15:55 20° SSE 19:15:55 20° SSE
Cosmos 1655 Rocket 3.9 19:13:43 10° N 19:19:59 72° E 19:26:24 10° S
Cosmos 2278 Rocket 2.9 19:18:05 10° SSW 19:23:39 54° WNW 19:29:09 10° N
Cosmos 2292 Rocket 4.3 19:21:49 10° NNW 19:25:43 54° WSW 19:30:57 10° S
Meteor 2-3 Rocket 3.6 19:20:10 10° N 19:25:46 81° E 19:29:42 21° SSE
Cosmos 1939 Rocket 3.8 19:23:02 14° S 19:26:29 48° WSW 19:30:30 10° NNW
Cosmos 2369 Rocket 4.5 19:25:49 10° S 19:25:50 10° S 19:25:50 10° S
CZ-4B R/B 3.4 19:25:00 10° S 19:30:20 69° WSW 19:35:36 10° NNW
Meteor 2-16 Rocket 4.3 19:26:04 10° N 19:32:08 68° E 19:33:54 46° SSE
H-2A R/B 2.9 19:33:35 56° W 19:33:35 56° W 19:37:01 10° NNW
Lacrosse 5 2.6 19:31:02 10° SW 19:34:45 40° S 19:34:45 40° S
Meteor 2-21 Rocket 4.4 19:32:22 10° N 19:38:37 89° WSW 19:44:56 10° S
Atlas Centaur 2 3.7 19:46:03 10° WNW 19:51:30 33° N 19:52:48 30° N
SL-16 R/B 2.9 20:05:11 10° NW 20:10:35 51° WSW 20:10:35 51° WSW
